Location: Dompnac
(44.5644°N, 4.1026°E)
Time: 10:47:23
(UTC+00:00)

CENTAUR R/B - Pass Details

Date: 19 September 2020
Orbit: 753 x 1435 km, 63.5° (Epoch: 26 October)

Event Time Altitude Azimuth Distance (km) Brightness Sun altitude
Rises 18:35:27 0° 321° (NW) 4,038 6.6 -9.6°
Reaches altitude 10° 18:38:20 10° 330° (NNW) 3,172 5.8 -10.1°
Maximum altitude 18:45:29 37° 36° (NE) 1,955 3.9 -11.3°
Enters shadow 18:51:58 15° 96° (E) 3,105 4.5 -12.4°
